DW8293 Weather Reports


time (UTC)temp
F
wind
direction
speed
knots
gust
knots
rain 1hr
in
rain 24hr
in
rain mn
in
humidity
%
barometer
mb
20260508023626 31 0 0.0 0.0 0.00 0.00 0.00 89 1019.3
20260508022704 32 0 0.0 0.0 0.00 0.00 0.00 89 1019.3
20260508021803 31 0 0.0 0.0 0.00 0.00 0.00 87 1019.1
20260508020905 31 0 0.0 0.0 0.00 0.00 0.00 85 1019.1
20260508020003 33 0 0.0 0.0 0.00 0.00 0.00 83 1018.9
20260508015403 34 0 0.0 0.0 0.00 0.00 0.00 81 1019.0
20260508014503 33 0 0.0 0.0 0.00 0.00 0.00 82 1019.1
20260508013603 34 0 0.0 0.0 0.00 0.00 0.00 81 1018.6
20260508012703 35 0 0.0 0.0 0.00 0.00 0.00 80 1018.7
20260508011805 36 0 0.0 0.0 0.00 0.00 0.00 80 1018.6
20260508010905 35 0 0.0 0.0 0.00 0.00 0.00 79 1018.3
20260508010003 35 0 0.0 0.0 0.00 0.00 0.00 80 1018.4
20260508005403 35 0 0.0 0.0 0.00 0.00 0.00 81 1018.5
20260508004503 34 0 0.0 0.0 0.00 0.00 0.00 80 1018.3
20260508003603 35 0 0.0 0.0 0.00 0.00 0.00 78 1018.3
20260508002705 36 0 0.0 0.0 0.00 0.00 0.00 77 1018.1
20260508001803 37 0 0.0 0.0 0.00 0.00 0.00 76 1018.0
20260508000924 37 0 0.0 0.0 0.00 0.00 0.00 74 1018.0
20260508000026 37 0 0.0 0.0 0.00 0.00 0.00 71 1017.8
20260507235403 37 0 0.0 0.0 0.00 0.00 0.00 69 1017.9
20260507234503 36 0 0.0 0.0 0.00 0.00 0.00 69 1017.9
20260507233605 38 0 0.0 0.0 0.00 0.00 0.00 67 1017.8
20260507232703 38 0 0.0 0.0 0.00 0.00 0.00 66 1017.5
20260507231803 39 0 0.0 0.0 0.00 0.00 0.00 66 1017.8
20260507230907 38 0 0.0 0.0 0.00 0.00 0.00 66 1017.6
20260507230003 39 0 0.0 0.0 0.00 0.00 0.00 64 1017.4
20260507225403 39 0 0.0 0.0 0.00 0.00 0.00 65 1017.4
20260507224505 38 0 0.0 0.0 0.00 0.00 0.00 65 1017.2
20260507223605 40 0 0.0 0.0 0.00 0.00 0.00 62 1017.1
20260507222703 40 0 0.0 0.0 0.00 0.00 0.00 63 1017.2
20260507221804 41 0 0.0 0.0 0.00 0.00 0.00 60 1016.9
20260507220903 42 112 0.0 1.7 0.00 0.00 0.00 58 1016.9
20260507220003 43 112 0.9 3.5 0.00 0.00 0.00 55 1017.1
20260507215403 44 112 1.7 1.7 0.00 0.00 0.00 54 1016.8
20260507214503 44 112 0.9 1.7 0.00 0.00 0.00 53 1016.9
20260507213603 45 109 1.7 3.5 0.00 0.00 0.00 51 1016.6
20260507212703 46 112 1.7 3.5 0.00 0.00 0.00 50 1016.7
20260507211805 46 112 1.7 3.5 0.00 0.00 0.00 51 1016.5
20260507210924 46 110 1.7 3.5 0.00 0.00 0.00 51 1016.5
20260507210003 46 111 0.9 3.5 0.00 0.00 0.00 51 1016.3
20260507205403 46 110 1.7 5.2 0.00 0.00 0.00 51 1016.1
20260507204503 47 105 1.7 5.2 0.00 0.00 0.00 51 1015.9
20260507203603 47 90 0.9 3.5 0.00 0.00 0.00 51 1015.9
20260507202703 46 67 0.9 1.7 0.00 0.00 0.00 55 1015.9
20260507201803 46 53 0.0 1.7 0.00 0.00 0.00 54 1015.9
20260507200903 46 45 0.0 1.7 0.00 0.00 0.00 53 1015.5
20260507200004 47 45 0.0 1.7 0.00 0.00 0.00 51 1015.5
20260507195424 47 45 0.0 1.7 0.00 0.00 0.00 50 1015.3
20260507194524 46 0 0.0 0.0 0.00 0.00 0.00 49 1015.2
20260507193603 47 45 0.0 1.7 0.00 0.00 0.00 46 1015.0
20260507192703 48 0 0.0 0.0 0.00 0.00 0.00 42 1015.0
20260507191803 49 0 0.0 0.0 0.00 0.00 0.00 43 1014.7
20260507190903 50 45 0.0 1.7 0.00 0.00 0.00 40 1014.7
20260507190024 51 45 0.9 1.7 0.00 0.00 0.00 37 1014.5
20260507185424 52 40 0.0 3.5 0.00 0.00 0.00 36 1014.6
20260507184505 54 22 0.9 1.7 0.00 0.00 0.00 28 1014.2
20260507183605 55 22 0.0 1.7 0.00 0.00 0.00 27 1014.3
20260507182703 56 22 0.0 1.7 0.00 0.00 0.00 26 1014.1
20260507181803 57 22 0.9 1.7 0.00 0.00 0.00 23 1014.1
20260507180903 57 21 0.9 3.5 0.00 0.00 0.00 23 1013.9
20260507180003 58 21 1.7 3.5 0.00 0.00 0.00 23 1013.9
20260507175403 58 20 1.7 3.5 0.00 0.00 0.00 24 1013.6
20260507174503 59 20 1.7 3.5 0.00 0.00 0.00 22 1013.6
20260507173624 59 358 1.7 3.5 0.00 0.00 0.00 22 1013.7
20260507172703 59 350 1.7 6.1 0.00 0.00 0.00 23 1013.6
20260507171803 59 342 1.7 6.1 0.00 0.00 0.00 22 1013.3
20260507170906 59 329 1.7 6.1 0.00 0.00 0.00 23 1013.2
20260507170003 59 316 1.7 6.1 0.00 0.00 0.00 24 1013.3
20260507165403 60 315 1.7 6.1 0.00 0.00 0.00 23 1013.1
20260507164503 60 316 2.6 5.2 0.00 0.00 0.00 23 1013.0
20260507163603 60 345 1.7 3.5 0.00 0.00 0.00 23 1013.0
20260507162703 60 342 1.7 3.5 0.00 0.00 0.00 22 1013.1
20260507161803 60 324 0.9 3.5 0.00 0.00 0.00 23 1012.9
20260507160903 62 342 1.7 3.5 0.00 0.00 0.00 22 1012.9
20260507160003 62 343 0.9 3.5 0.00 0.00 0.00 21 1012.6
20260507155403 61 330 0.0 3.5 0.00 0.00 0.00 22 1012.9
20260507154504 60 321 1.7 5.2 0.00 0.00 0.00 24 1012.9
20260507153603 61 294 1.7 6.1 0.00 0.00 0.00 22 1012.9
20260507152724 59 316 1.7 7.8 0.00 0.00 0.00 24 1012.7
20260507151803 60 326 6.1 9.6 0.00 0.00 0.00 24 1012.6
20260507150926 60 338 4.3 7.8 0.00 0.00 0.00 24 1012.5
20260507150004 61 337 3.5 5.2 0.00 0.00 0.00 25 1012.4
20260507145405 62 358 1.7 6.1 0.00 0.00 0.00 24 1012.4
20260507144503 61 349 3.5 5.2 0.00 0.00 0.00 24 1012.5
20260507143603 61 31 1.7 6.1 0.00 0.00 0.00 25 1012.4
20260507142704 60 13 3.5 6.1 0.00 0.00 0.00 24 1012.2
20260507141803 62 348 1.7 3.5 0.00 0.00 0.00 25 1012.3
20260507140903 60 353 1.7 3.5 0.00 0.00 0.00 25 1012.3
20260507140025 58 348 0.0 3.5 0.00 0.00 0.00 25 1012.3
20260507135403 58 6 1.7 3.5 0.00 0.00 0.00 26 1012.2
20260507134505 57 327 1.7 6.1 0.00 0.00 0.00 27 1012.3
20260507133603 56 303 3.5 7.8 0.00 0.00 0.00 28 1012.1
20260507132705 58 283 1.7 7.8 0.00 0.00 0.00 29 1012.2
20260507131803 58 302 1.7 7.0 0.00 0.00 0.00 26 1012.1
20260507130903 60 330 2.6 7.0 0.00 0.00 0.00 26 1012.1
20260507130005 62 70 1.7 6.1 0.00 0.00 0.00 25 1012.0
20260507125403 58 51 3.5 6.1 0.00 0.00 0.00 27 1012.3
20260507124503 60 19 2.6 6.1 0.00 0.00 0.00 27 1011.9
20260507123603 58 338 1.7 6.1 0.00 0.00 0.00 26 1012.0
20260507122705 57 345 2.6 6.1 0.00 0.00 0.00 30 1012.0
20260507121803 57 15 1.7 7.8 0.00 0.00 0.00 28 1012.0
20260507120903 60 329 1.7 6.1 0.00 0.00 0.00 25 1011.9
20260507120005 60 321 3.5 9.6 0.00 0.00 0.00 27 1011.9
20260507115403 60 321 3.5 7.8 0.00 0.00 0.00 26 1011.7
20260507114503 58 343 3.5 6.1 0.00 0.00 0.00 26 1011.9
20260507113605 56 293 2.6 7.8 0.00 0.00 0.00 27 1012.0
20260507112703 59 124 0.9 3.5 0.00 0.00 0.00 27 1011.7
20260507111805 56 347 0.9 7.8 0.00 0.00 0.00 27 1011.8
20260507110903 55 354 1.7 7.8 0.00 0.00 0.00 28 1011.8
20260507110005 58 335 2.6 7.0 0.00 0.00 0.00 26 1011.7
20260507105403 57 356 3.5 7.0 0.00 0.00 0.00 26 1011.6
20260507104504 58 302 1.7 3.5 0.00 0.00 0.00 28 1011.6
20260507103603 57 281 0.9 3.5 0.00 0.00 0.00 29 1011.6
20260507102705 56 318 1.7 15.6 0.00 0.00 0.00 31 1011.5
20260507101805 54 338 7.0 15.6 0.00 0.00 0.00 33 1011.5
20260507100903 55 74 0.9 5.2 0.00 0.00 0.00 32 1011.3
20260507100004 56 346 0.9 6.1 0.00 0.00 0.00 33 1011.6
20260507095403 56 356 2.6 6.1 0.00 0.00 0.00 34 1011.4
20260507094504 58 152 0.9 3.5 0.00 0.00 0.00 34 1011.3
20260507093603 55 158 1.7 6.1 0.00 0.00 0.00 36 1011.3
20260507092703 54 152 3.5 3.5 0.00 0.00 0.00 38 1011.3
20260507091805 55 28 1.7 5.2 0.00 0.00 0.00 42 1011.2
20260507090905 53 19 1.7 3.5 0.00 0.00 0.00 43 1011.3
20260507090006 54 53 0.9 5.2 0.00 0.00 0.00 44 1011.2
20260507085403 55 83 1.7 3.5 0.00 0.00 0.00 44 1011.1
20260507084503 53 85 1.7 6.1 0.00 0.00 0.00 47 1011.2
20260507083624 52 99 4.3 6.1 0.00 0.00 0.00 49 1011.2
20260507082703 51 113 1.7 5.2 0.00 0.00 0.00 50 1011.2
20260507081824 52 114 0.9 5.2 0.00 0.00 0.00 48 1011.1
20260507080907 50 95 3.5 5.2 0.00 0.00 0.00 50 1011.0
20260507080025 51 94 1.7 3.5 0.00 0.00 0.00 50 1011.0
20260507075403 51 20 1.7 3.5 0.00 0.00 0.00 49 1010.9
20260507074505 50 42 1.7 3.5 0.00 0.00 0.00 49 1010.7
20260507073624 50 85 1.7 3.5 0.00 0.00 0.00 49 1011.1
20260507072703 50 91 0.9 3.5 0.00 0.00 0.00 50 1010.7
20260507071803 48 74 1.7 3.5 0.00 0.00 0.00 52 1010.7
20260507070905 48 73 0.9 3.5 0.00 0.00 0.00 52 1010.9
20260507070006 48 90 1.7 3.5 0.00 0.00 0.00 54 1010.7
20260507065403 48 90 1.7 3.5 0.00 0.00 0.00 56 1010.5
20260507064507 47 88 2.6 3.5 0.00 0.00 0.00 56 1010.7
20260507063603 46 88 0.9 3.5 0.00 0.00 0.00 58 1010.7
20260507062703 45 90 1.7 3.5 0.00 0.00 0.00 61 1010.5
20260507061805 43 90 1.7 3.5 0.00 0.00 0.00 64 1010.4
20260507060926 43 90 1.7 3.5 0.00 0.00 0.00 65 1010.5
20260507060005 43 90 1.7 3.5 0.00 0.00 0.00 64 1010.5
20260507055403 43 90 0.0 3.5 0.00 0.00 0.00 64 1010.7
20260507054524 44 102 0.9 3.5 0.00 0.00 0.00 63 1010.4
20260507053603 41 102 0.0 3.5 0.00 0.00 0.00 68 1010.4
20260507052705 41 94 0.9 3.5 0.00 0.00 0.00 67 1010.3
20260507051804 41 100 1.7 3.5 0.00 0.00 0.00 67 1010.3
20260507050903 41 110 1.7 1.7 0.00 0.00 0.00 67 1010.2
20260507050003 39 112 0.9 3.5 0.00 0.00 0.00 70 1010.3
20260507045405 39 115 0.9 3.5 0.00 0.00 0.00 70 1010.2
20260507044503 39 122 1.7 3.5 0.00 0.00 0.00 71 1010.2
20260507043605 39 112 0.9 1.7 0.00 0.00 0.00 72 1010.1
20260507042703 39 112 0.0 1.7 0.00 0.00 0.00 72 1009.9
20260507041803 39 135 0.0 1.7 0.00 0.00 0.00 70 1010.0
20260507040903 39 132 0.9 1.7 0.00 0.00 0.00 70 1009.8
20260507040004 39 75 0.9 1.7 0.00 0.00 0.00 70 1009.7
20260507035403 39 45 0.0 1.7 0.00 0.00 0.00 70 1009.8
20260507034503 39 0 0.0 0.0 0.00 0.00 0.00 71 1009.7
20260507033603 38 0 0.0 0.0 0.00 0.00 0.00 71 1009.7
20260507032705 38 45 0.0 1.7 0.00 0.00 0.00 72 1009.7
20260507031803 37 0 0.0 0.0 0.00 0.00 0.00 72 1009.6
20260507030924 37 0 0.0 0.0 0.00 0.00 0.00 71 1009.7
20260507030005 38 0 0.0 0.0 0.00 0.00 0.00 70 1009.6
20260507025404 38 45 0.0 1.7 0.00 0.00 0.00 71 1009.6
20260507024503 37 0 0.0 0.0 0.00 0.00 0.00 71 1009.7